�N����,����,�~����,�C��,���x,�C��,����,���ϕ���,�ő�u�ԕ���,�ő厞����,���˗�,�I�_���x,�n�����x,�ő啗���N��,DTYPE
"19/03/04","00:10",0.2,8.6,98.0,1002.9,297.8,1.0,1.3,318.6,0.00,8.3,9.3,"00:00:16",1
"19/03/04","00:20",0.4,8.7,97.4,1002.9,292.7,0.7,0.8,298.3,0.00,8.4,9.5,"00:10:12",1
"19/03/04","00:30",0.2,8.6,98.1,1003.1,309.0,0.5,0.9,280.0,0.00,8.4,9.4,"00:20:24",1
"19/03/04","00:40",0.2,8.7,97.5,1002.9,329.7,0.8,1.3,341.4,0.00,8.4,9.3,"00:37:10",1
"19/03/04","00:50",0.2,8.6,98.1,1002.9,327.1,0.8,1.3,320.4,0.00,8.4,9.4,"00:43:30",1
"19/03/04","01:00",0.4,8.7,97.5,1002.9,286.2,0.2,0.5,279.3,0.00,8.4,9.5,"00:57:56",1
"19/03/04","01:10",0.2,8.6,98.2,1002.9,290.7,0.7,0.9,300.8,0.00,8.4,9.2,"01:02:16",1
"19/03/04","01:20",0.4,8.7,97.6,1002.4,284.1,0.8,1.2,303.7,0.00,8.4,9.3,"01:19:06",1
"19/03/04","01:30",0.2,8.6,98.3,1002.2,310.6,1.0,1.2,300.1,0.00,8.4,9.2,"01:20:10",1
"19/03/04","01:40",0.2,8.7,97.8,1002.4,299.4,0.7,1.0,310.8,0.00,8.4,9.2,"01:36:12",1
"19/03/04","01:50",0.4,8.6,98.3,1002.2,326.0,1.0,1.2,336.6,0.00,8.4,9.4,"01:47:20",1
"19/03/04","02:00",0.2,8.7,97.8,1001.9,334.1,0.8,1.1,344.4,0.00,8.4,9.3,"01:51:44",1
"19/03/04","02:10",0.2,8.6,98.4,1001.9,317.0,1.0,1.3,325.9,0.00,8.4,9.2,"02:04:02",1
"19/03/04","02:20",0.2,8.7,97.9,1001.7,313.8,1.0,1.1,322.7,0.00,8.4,9.2,"02:14:14",1
"19/03/04","02:30",0.4,8.5,98.5,1001.5,302.7,0.7,1.2,319.5,0.00,8.3,9.2,"02:20:16",1
"19/03/04","02:40",0.2,8.7,97.9,1001.2,293.0,0.6,1.1,307.8,0.00,8.4,9.2,"02:36:16",1
"19/03/04","02:50",0.2,8.5,98.6,1000.8,308.6,0.7,1.2,321.4,0.00,8.3,9.3,"02:45:24",1
"19/03/04","03:00",0.2,8.7,98.0,1000.5,328.7,1.0,1.1,325.1,0.00,8.4,9.2,"02:50:26",1
"19/03/04","03:10",0.0,8.6,98.0,1001.0,321.3,1.1,1.2,330.6,0.00,8.3,9.2,"03:04:08",1
"19/03/04","03:20",0.4,8.7,98.1,1000.5,307.5,0.6,0.9,302.5,0.00,8.5,9.0,"03:10:34",1
"19/03/04","03:30",0.2,8.7,98.0,1000.5,313.8,1.0,1.1,301.5,0.00,8.4,9.4,"03:28:00",1
"19/03/04","03:40",0.4,8.8,98.1,1000.3,340.1,0.3,1.2,322.2,0.00,8.6,9.3,"03:39:30",1
"19/03/04","03:50",0.4,8.7,98.0,1000.3,317.7,0.8,1.3,313.2,0.00,8.4,9.4,"03:44:22",1
"19/03/04","04:00",0.6,8.7,98.1,999.8,312.1,1.0,1.6,323.2,0.00,8.5,9.2,"03:51:42",1
"19/03/04","04:10",0.4,8.9,98.2,1000.0,292.6,1.0,1.4,293.2,0.00,8.7,9.4,"04:06:50",1
"19/03/04","04:20",0.4,9.0,98.1,1000.0,297.1,1.2,1.7,308.3,0.00,8.8,9.3,"04:11:54",1
"19/03/04","04:30",0.4,8.9,98.0,1000.0,289.8,1.3,1.8,274.8,0.00,8.6,9.3,"04:22:42",1
"19/03/04","04:40",0.6,8.9,98.1,1000.0,298.1,1.1,1.8,314.7,0.00,8.7,9.2,"04:39:14",1
"19/03/04","04:50",0.4,9.0,98.1,1000.3,317.3,1.0,1.6,336.7,0.00,8.8,9.4,"04:45:06",1
"19/03/04","05:00",0.4,9.0,98.0,1000.0,321.6,1.0,1.4,339.7,0.00,8.7,9.1,"04:58:00",1
"19/03/04","05:10",0.2,9.0,98.1,999.8,304.8,0.7,1.3,338.4,0.00,8.8,9.4,"05:00:48",1
"19/03/04","05:20",0.2,9.0,98.1,999.8,295.0,0.6,1.1,325.5,0.00,8.8,9.1,"05:12:08",1
"19/03/04","05:30",0.2,9.0,98.1,999.6,15.3,0.5,1.1,324.0,0.00,8.8,9.3,"05:29:52",1
"19/03/04","05:40",0.0,8.9,98.1,999.8,313.7,0.7,1.2,271.7,0.00,8.7,9.1,"05:33:36",1
"19/03/04","05:50",0.2,8.9,98.0,1000.0,325.7,1.1,1.7,332.7,0.00,8.6,9.1,"05:46:34",1
"19/03/04","06:00",0.0,8.6,98.1,1000.0,326.4,1.6,2.7,339.3,0.00,8.4,9.3,"05:53:16",1
"19/03/04","06:10",0.4,8.5,98.2,999.8,316.6,1.6,2.2,341.0,0.00,8.3,9.3,"06:00:24",1
"19/03/04","06:20",0.2,8.5,98.2,1000.0,303.7,1.6,3.2,320.3,0.00,8.3,9.2,"06:19:14",1
"19/03/04","06:30",0.2,8.5,98.2,999.8,326.0,2.1,3.2,313.0,0.00,8.3,9.1,"06:21:34",1
"19/03/04","06:40",0.0,8.5,98.2,999.6,328.5,2.1,3.3,331.0,0.00,8.3,9.4,"06:33:24",1
"19/03/04","06:50",0.2,8.4,98.2,1000.3,330.8,2.1,3.6,328.2,0.00,8.2,9.2,"06:45:38",1
"19/03/04","07:00",0.0,8.4,98.1,1000.0,321.1,1.8,3.7,340.0,0.00,8.2,9.2,"06:56:40",1
"19/03/04","07:10",0.2,8.4,98.1,999.8,325.0,2.1,3.4,339.9,0.00,8.2,9.2,"07:05:06",1
"19/03/04","07:20",0.2,8.5,98.2,1000.0,331.2,1.5,2.2,333.4,0.00,8.3,9.2,"07:12:00",1
"19/03/04","07:30",0.0,8.7,98.2,999.3,324.2,1.5,2.4,328.5,0.00,8.5,9.2,"07:23:30",1
"19/03/04","07:40",0.2,8.7,98.1,999.6,282.7,1.7,3.2,328.6,0.01,8.5,9.2,"07:39:20",1
"19/03/04","07:50",0.0,8.8,98.1,999.8,321.1,2.6,3.7,339.9,0.01,8.6,9.3,"07:44:32",1
"19/03/04","08:00",0.0,8.8,98.1,999.1,328.9,2.5,3.7,324.3,0.01,8.6,9.1,"07:51:44",1
"19/03/04","08:10",0.0,9.0,97.9,999.6,310.8,1.8,2.8,323.6,0.00,8.7,9.2,"08:03:22",1
"19/03/04","08:20",0.0,8.9,98.4,999.6,311.1,1.6,2.4,328.0,0.00,8.7,9.2,"08:18:40",1
"19/03/04","08:30",0.2,9.2,97.9,999.3,297.4,1.5,2.5,308.6,0.02,8.9,9.2,"08:20:08",1
"19/03/04","08:40",0.0,9.2,98.3,999.6,316.7,1.7,2.8,337.5,0.02,9.0,9.3,"08:37:20",1
"19/03/04","08:50",0.0,8.9,97.8,999.6,325.4,2.7,4.4,325.9,0.02,8.6,9.1,"08:49:16",1
"19/03/04","09:00",0.0,8.7,98.3,999.8,313.3,2.6,3.9,324.9,0.02,8.5,9.4,"08:58:04",1
"19/03/04","09:10",0.0,9.0,97.9,999.6,307.8,2.3,3.4,259.3,0.04,8.7,9.3,"09:03:54",1
"19/03/04","09:20",0.0,9.0,98.2,999.6,326.0,2.7,4.4,339.5,0.04,8.8,9.3,"09:19:28",1
"19/03/04","09:30",0.0,9.2,97.7,1000.0,326.3,3.0,4.4,334.3,0.06,8.9,9.3,"09:26:08",1
"19/03/04","09:40",0.0,9.3,98.1,999.8,325.6,2.8,4.8,329.7,0.07,9.1,9.4,"09:37:12",1
"19/03/04","09:50",0.0,9.7,97.0,999.6,306.3,2.8,4.7,332.1,0.09,9.3,9.6,"09:41:28",1
"19/03/04","10:00",0.0,9.8,97.5,999.6,299.5,2.8,4.5,323.9,0.09,9.5,9.3,"09:53:28",1
"19/03/04","10:10",0.0,10.0,97.1,999.6,290.5,2.8,4.4,327.9,0.13,9.6,9.5,"10:02:16",1
"19/03/04","10:20",0.0,10.3,96.4,999.3,302.0,3.0,5.0,321.9,0.10,9.8,9.4,"10:12:56",1
"19/03/04","10:30",0.0,10.5,95.5,999.3,312.9,3.1,4.4,337.0,0.11,9.9,9.7,"10:22:32",1
"19/03/04","10:40",0.0,10.6,94.4,999.6,284.6,2.5,4.8,300.6,0.13,9.8,9.9,"10:39:44",1
"19/03/04","10:50",0.0,10.8,94.5,999.8,291.8,2.6,4.0,261.4,0.08,10.0,9.7,"10:43:20",1
"19/03/04","11:00",0.0,10.7,93.9,999.3,287.8,2.6,3.9,307.4,0.09,9.8,9.7,"10:58:56",1
"19/03/04","11:10",0.0,10.6,93.7,999.1,286.2,3.0,4.4,304.8,0.09,9.7,9.8,"11:08:40",1
"19/03/04","11:20",0.0,10.9,93.5,999.6,304.5,3.2,5.1,326.3,0.11,9.9,10.0,"11:17:04",1
"19/03/04","11:30",0.0,10.9,92.6,999.1,311.1,3.1,4.4,323.3,0.08,9.8,10.1,"11:22:00",1
"19/03/04","11:40",0.0,10.9,91.5,999.3,306.9,3.4,4.8,317.4,0.09,9.6,10.0,"11:35:28",1
"19/03/04","11:50",0.0,11.1,90.7,999.6,296.2,2.8,4.7,320.2,0.14,9.7,10.1,"11:49:28",1
"19/03/04","12:00",0.0,11.1,90.1,999.1,297.0,3.4,5.6,339.3,0.15,9.6,10.2,"11:52:00",1
"19/03/04","12:10",0.0,11.2,89.1,999.6,293.6,3.4,7.5,341.1,0.15,9.5,10.3,"12:02:56",1
"19/03/04","12:20",0.0,11.6,88.4,999.1,298.9,3.7,6.3,337.3,0.15,9.8,10.3,"12:17:20",1
"19/03/04","12:30",0.0,11.3,87.5,999.3,296.8,3.0,4.7,326.0,0.16,9.3,10.3,"12:22:16",1
"19/03/04","12:40",0.0,11.3,86.3,999.3,301.0,3.5,7.2,321.0,0.11,9.1,10.4,"12:33:36",1
"19/03/04","12:50",0.0,11.7,84.9,999.3,295.1,3.5,6.0,334.3,0.11,9.3,10.4,"12:49:20",1
"19/03/04","13:00",0.0,11.3,85.7,999.1,293.8,3.1,5.7,303.5,0.12,9.0,10.4,"12:53:12",1
"19/03/04","13:10",0.0,11.5,85.0,999.1,287.9,3.0,5.2,303.7,0.09,9.1,10.3,"13:01:44",1
"19/03/04","13:20",0.0,11.4,84.1,999.3,290.7,3.1,5.8,326.9,0.09,8.9,10.5,"13:18:56",1
"19/03/04","13:30",0.0,11.5,84.6,999.3,289.6,3.2,5.1,325.0,0.13,9.0,10.4,"13:25:28",1
"19/03/04","13:40",0.0,11.3,84.4,999.1,291.9,3.0,6.2,325.4,0.07,8.8,10.6,"13:30:40",1
"19/03/04","13:50",0.0,11.0,83.9,999.6,298.5,3.4,6.6,310.2,0.03,8.4,10.5,"13:46:24",1
"19/03/04","14:00",0.0,11.0,83.6,999.6,315.0,3.7,6.6,331.9,0.04,8.4,10.7,"13:56:32",1
"19/03/04","14:10",0.0,10.9,82.3,999.3,314.3,4.4,6.6,341.6,0.02,8.0,10.4,"14:04:56",1
"19/03/04","14:20",0.0,10.8,80.9,999.3,314.4,4.1,7.2,327.3,0.01,7.7,10.6,"14:13:20",1
"19/03/04","14:30",0.0,10.7,80.5,999.8,329.4,4.1,7.2,340.8,0.02,7.5,10.3,"14:29:36",1
"19/03/04","14:40",0.0,10.9,80.1,999.6,331.1,3.4,5.6,335.8,0.07,7.6,10.6,"14:39:20",1
"19/03/04","14:50",0.0,11.0,79.3,999.6,325.5,3.7,7.0,330.1,0.08,7.6,10.5,"14:44:56",1
"19/03/04","15:00",0.0,10.7,78.6,1000.0,312.3,4.7,10.2,304.0,0.07,7.2,10.2,"14:50:24",1
"19/03/04","15:10",0.0,10.7,78.1,1000.0,309.2,4.2,7.4,313.8,0.05,7.1,10.4,"15:01:12",1
"19/03/04","15:20",0.0,10.7,78.5,1000.0,312.6,3.2,7.8,335.8,0.05,7.2,10.7,"15:12:08",1
"19/03/04","15:30",0.0,10.5,78.7,1000.3,306.1,4.1,7.5,325.1,0.03,7.0,10.4,"15:25:36",1
"19/03/04","15:40",0.0,10.4,79.4,1000.0,309.0,3.9,8.3,323.0,0.05,7.0,10.3,"15:35:20",1
"19/03/04","15:50",0.0,10.3,78.7,1000.0,303.6,3.6,7.2,313.2,0.08,6.8,10.5,"15:48:40",1
"19/03/04","16:00",0.0,10.3,78.4,1000.5,307.1,4.2,8.1,308.7,0.08,6.8,10.4,"15:57:04",1
"19/03/04","16:10",0.0,10.2,77.7,1001.0,315.8,5.6,9.4,328.8,0.07,6.5,10.3,"16:08:40",1
"19/03/04","16:20",0.0,10.2,77.0,1001.0,312.4,5.5,9.3,333.2,0.08,6.4,10.4,"16:12:16",1
"19/03/04","16:30",0.0,10.3,76.2,1001.0,317.0,5.0,9.1,328.3,0.09,6.3,10.4,"16:28:00",1
"19/03/04","16:40",0.0,10.1,75.8,1001.2,313.7,5.6,9.4,331.3,0.05,6.1,10.2,"16:31:12",1
"19/03/04","16:50",0.0,10.0,76.4,1001.5,318.9,3.1,5.7,349.1,0.04,6.1,10.1,"16:44:16",1
"19/03/04","17:00",0.0,9.4,76.3,1001.5,309.2,5.5,9.3,317.7,0.04,5.5,10.4,"16:59:08",1
"19/03/04","17:10",0.0,9.3,75.4,1001.9,312.2,5.2,10.2,326.5,0.04,5.2,10.3,"17:07:36",1
"19/03/04","17:20",0.0,9.2,74.9,1001.9,316.2,5.2,10.4,315.0,0.03,5.0,10.1,"17:10:56",1
"19/03/04","17:30",0.0,8.9,75.0,1001.9,313.1,5.1,8.3,302.9,0.02,4.8,10.3,"17:24:16",1
"19/03/04","17:40",0.0,8.9,75.3,1002.4,299.3,4.1,12.9,336.8,0.01,4.8,10.1,"17:31:28",1
"19/03/04","17:50",0.0,8.7,75.8,1002.4,316.0,3.4,6.8,329.6,0.01,4.7,10.0,"17:44:56",1
"19/03/04","18:00",0.0,8.5,76.6,1002.4,314.8,4.0,9.4,339.3,0.00,4.7,10.0,"17:59:04",1
"19/03/04","18:10",0.0,8.3,77.5,1002.6,312.9,2.7,5.4,325.1,0.00,4.6,10.0,"18:03:44",1
"19/03/04","18:20",0.0,8.2,78.6,1002.6,304.0,2.3,5.5,314.2,0.00,4.7,10.1,"18:11:44",1
"19/03/04","18:30",0.0,8.0,79.2,1003.1,308.4,2.7,5.9,344.6,0.00,4.7,9.9,"18:21:20",1
"19/03/04","18:40",0.0,7.8,79.3,1003.1,321.7,2.1,4.0,334.4,0.00,4.5,9.9,"18:32:24",1
"19/03/04","18:50",0.0,7.7,80.0,1003.1,307.4,2.5,4.8,323.3,0.00,4.5,9.7,"18:45:04",1
"19/03/04","19:00",0.0,7.8,80.6,1003.1,317.8,2.3,4.0,337.2,0.00,4.7,9.9,"18:50:32",1
"19/03/04","19:10",0.0,7.9,80.9,1003.4,306.1,1.8,4.0,334.4,0.00,4.9,9.9,"19:02:24",1
"19/03/04","19:20",0.0,7.8,81.9,1003.6,295.0,2.2,4.8,303.2,0.00,4.9,9.7,"19:18:40",1
"19/03/04","19:30",0.0,7.6,83.1,1003.8,313.4,3.4,5.5,315.1,0.00,5.0,9.5,"19:27:28",1
"19/03/04","19:40",0.0,7.5,84.7,1003.8,308.3,3.0,4.1,330.7,0.00,5.1,9.6,"19:35:04",1
"19/03/04","19:50",0.0,7.4,86.2,1004.3,301.9,2.3,3.6,312.9,0.00,5.3,9.6,"19:42:16",1
"19/03/04","20:00",0.0,7.4,87.1,1004.1,325.1,2.0,2.9,328.1,0.00,5.4,9.4,"19:59:52",1
"19/03/04","20:10",0.2,7.3,87.9,1004.5,324.7,2.6,3.6,326.5,0.00,5.5,9.6,"20:02:10",1
"19/03/04","20:20",0.0,7.3,88.5,1004.3,314.1,2.5,3.3,327.7,0.00,5.6,9.5,"20:19:58",1
"19/03/04","20:30",0.0,7.2,89.0,1004.5,308.1,2.3,4.0,318.1,0.00,5.6,9.5,"20:24:14",1
"19/03/04","20:40",0.0,7.2,89.6,1004.5,296.9,2.0,3.4,313.8,0.00,5.6,9.6,"20:34:06",1
"19/03/04","20:50",0.0,7.1,90.0,1004.8,278.9,1.6,2.2,297.4,0.00,5.6,9.2,"20:43:52",1
"19/03/04","21:00",0.2,7.1,90.5,1005.2,297.2,1.6,2.5,315.2,0.00,5.7,9.2,"20:59:52",1
"19/03/04","21:10",0.0,7.0,91.0,1005.2,284.0,1.1,2.1,325.0,0.00,5.7,9.4,"21:00:16",1
"19/03/04","21:20",0.0,7.1,91.4,1005.2,309.7,1.0,1.6,325.3,0.00,5.8,9.3,"21:10:08",1
"19/03/04","21:30",0.0,7.0,91.9,1005.7,290.4,1.3,2.6,286.7,0.00,5.8,9.4,"21:29:28",1
"19/03/04","21:40",0.0,7.0,92.2,1006.0,296.3,2.0,3.9,335.0,0.00,5.9,9.2,"21:38:24",1
"19/03/04","21:50",0.0,7.1,92.1,1006.0,317.3,2.1,2.9,320.1,0.00,5.9,9.3,"21:45:32",1
"19/03/04","22:00",0.2,7.0,92.4,1006.2,302.4,1.8,2.8,318.2,0.00,5.9,9.2,"21:50:26",1
"19/03/04","22:10",0.0,7.0,92.5,1006.0,304.5,2.0,2.8,337.9,0.00,5.9,9.4,"22:05:02",1
"19/03/04","22:20",0.0,6.9,92.6,1006.2,317.9,2.1,3.4,330.6,0.00,5.8,9.1,"22:13:18",1
"19/03/04","22:30",0.0,6.9,92.8,1006.4,323.6,2.3,2.9,312.7,0.00,5.9,9.2,"22:29:54",1
"19/03/04","22:40",0.0,6.9,92.8,1006.4,316.4,2.1,2.8,334.9,0.00,5.9,9.2,"22:35:34",1
"19/03/04","22:50",0.0,6.8,93.0,1006.7,316.0,0.8,0.9,319.4,0.00,5.8,9.1,"22:41:18",1
"19/03/04","23:00",0.0,6.8,93.2,1007.1,314.2,1.3,1.3,301.5,0.00,5.8,9.2,"22:58:30",1
"19/03/04","23:10",0.0,7.0,93.4,1007.4,311.8,2.0,2.9,316.9,0.00,6.0,8.9,"23:00:02",1
"19/03/04","23:20",0.0,7.1,93.3,1007.4,314.7,1.7,2.4,322.1,0.00,6.1,8.9,"23:13:44",1
"19/03/04","23:30",0.0,7.1,93.4,1007.4,316.7,2.1,2.9,320.1,0.00,6.1,9.0,"23:20:08",1
"19/03/04","23:40",0.0,6.9,93.5,1007.4,287.2,1.5,2.4,322.7,0.00,6.0,9.0,"23:32:28",1
"19/03/04","23:50",0.2,6.9,93.8,1007.8,307.7,1.8,2.5,318.5,0.00,6.0,9.0,"23:49:48",1
"19/03/04","24:00",0.0,7.0,93.9,1007.8,314.2,1.8,2.4,328.7,0.00,6.1,8.9,"23:55:50",1
